Temp
-11 -10 -9 -10 -11 -10 -9 -9 -9 -9 -11 -9 -9 -9 -10 -10 -9 -10 -10 -10 -10 -10 -11 -11 -10 -10 -10 -10 -11 -12 -12 -11 -11 -11 -11 -11 -12 -12 -12 -12 -12 -12 -13 -13
-10 -9 -10 -10 -10 -10 -10 -9 -9 -9 -10 -10 -10 -9 -10 -10 -10 -10 -11 -11 -11 -11 -11 -11 -10 -10 -10 -11 -11 -12 -12 -12 -12 -11 -11 -12 -12 -12 -12 -13 -13 -13 -13 -13
-10 -10 -11 -10 -10 -10 -10 -10 -10 -10 -11 -10 -10 -9 -10 -11 -11 -11 -12 -12 -12 -12 -12 -11 -10 -11 -11 -11 -11 -12 -12 -12 -12 -12 -11 -12 -12 -13 -13 -13 -13 -13 -14 -14
-10 -10 -10 -11 -11 -11 -11 -12 -11 -11 -11 -10 -11 -8 -10 -11 -12 -13 -12 -13 -12 -13 -11 -11 -10 -11 -11 -11 -12 -12 -13 -13 -13 -12 -12 -12 -13 -13 -13 -14 -14 -14 -15 -15
-10 -11 -11 -11 -11 -12 -11 -12 -12 -12 -11 -11 -11 -11 -9 -11 -12 -12 -12 -12 -12 -12 -12 -12 -11 -12 -12 -12 -12 -12 -12 -13 -13 -13 -13 -13 -13 -14 -14 -15 -15 -16 -16 -16
-11 -12 -11 -11 -12 -12 -12 -12 -12 -12 -12 -12 -12 -12 -10 -11 -12 -12 -12 -11 -12 -13 -13 -13 -13 -13 -13 -12 -12 -13 -13 -13 -14 -14 -14 -14 -14 -14 -14 -15 -15 -15 -15 -15
-13 -12 -13 -12 -12 -13 -13 -14 -13 -13 -13 -11 -12 -13 -12 -12 -12 -12 -12 -12 -12 -12 -13 -14 -14 -14 -14 -14 -14 -14 -14 -14 -14 -14 -14 -14 -14 -15 -15 -15 -15 -15 -15 -16
-13 -13 -13 -13 -12 -13 -14 -14 -13 -13 -12 -12 -13 -13 -12 -12 -12 -12 -12 -12 -12 -12 -13 -13 -14 -13 -14 -14 -14 -14 -15 -14 -15 -15 -15 -15 -15 -15 -15 -16 -16 -16 -16 -16
-13 -13 -13 -13 -13 -13 -13 -14 -14 -14 -14 -14 -13 -13 -13 -13 -13 -13 -13 -13 -14 -13 -13 -13 -14 -14 -14 -14 -15 -15 -15 -15 -15 -15 -16 -16 -16 -16 -16 -16 -17 -17 -17 -17
-14 -14 -13 -13 -13 -14 -14 -15 -15 -15 -15 -15 -14 -14 -14 -14 -14 -14 -15 -14 -15 -14 -14 -14 -14 -15 -14 -14 -15 -15 -15 -15 -15 -16 -16 -16 -17 -17 -17 -17 -18 -18 -18 -18
-15 -14 -14 -14 -14 -15 -14 -14 -15 -16 -16 -16 -15 -15 -14 -15 -15 -16 -16 -15 -15 -15 -15 -15 -15 -15 -15 -15 -15 -16 -16 -16 -16 -17 -17 -18 -18 -18 -18 -18 -18 -19 -19 -19
-16 -16 -15 -16 -16 -16 -16 -16 -16 -17 -16 -15 -15 -15 -15 -15 -15 -16 -17 -16 -16 -15 -15 -15 -16 -16 -16 -16 -16 -16 -17 -17 -18 -18 -18 -19 -19 -19 -19 -19 -19 -19 -19 -20
-16 -17 -16 -16 -18 -17 -17 -17 -17 -17 -17 -17 -17 -16 -16 -16 -17 -17 -17 -18 -17 -16 -16 -16 -16 -17 -17 -17 -18 -19 -20 -20 -20 -20 -20 -20 -20 -20 -20 -20 -19 -19 -20 -20
-18 -18 -17 -16 -18 -19 -18 -18 -18 -18 -18 -18 -18 -18 -18 -18 -18 -18 -18 -18 -18 -19 -19 -18 -17 -17 -19 -19 -19 -20 -20 -20 -20 -20 -20 -20 -20 -20 -20 -20 -20 -20 -20 -20
-19 -18 -19 -18 -18 -19 -20 -19 -18 -18 -18 -19 -17 -19 -18 -19 -19 -19 -19 -19 -19 -19 -19 -19 -19 -19 -19 -19 -19 -20 -20 -20 -20 -21 -21 -21 -21 -21 -21 -21 -21 -21 -21 -21
-19 -18 -19 -20 -20 -19 -20 -20 -18 -18 -18 -19 -20 -19 -19 -20 -20 -20 -19 -19 -20 -19 -20 -20 -20 -21 -20 -21 -20 -20 -20 -21 -21 -21 -22 -21 -21 -21 -21 -21 -22 -22 -22 -22
-20 -20 -20 -21 -21 -21 -22 -18 -20 -19 -19 -20 -20 -19 -19 -20 -21 -21 -21 -20 -20 -20 -20 -21 -21 -21 -21 -22 -21 -21 -22 -22 -22 -23 -24 -24 -23 -23 -24 -24 -23 -23 -23 -23
-21 -21 -22 -21 -22 -22 -21 -21 -20 -20 -20 -21 -21 -20 -21 -21 -22 -22 -22 -22 -22 -22 -22 -22 -22 -22 -22 -22 -22 -23 -23 -24 -24 -24 -24 -25 -25 -25 -25 -25 -25 -25 -24 -24
-22 -22 -22 -22 -22 -22 -22 -21 -21 -21 -21 -21 -21 -22 -22 -22 -22 -22 -22 -22 -22 -22 -23 -23 -23 -23 -23 -23 -24 -24 -24 -24 -25 -25 -25 -25 -25 -26 -26 -25 -25 -25 -25 -24
-22 -22 -23 -22 -23 -23 -22 -21 -22 -22 -22 -21 -22 -22 -22 -23 -22 -22 -22 -23 -23 -24 -24 -24 -24 -24 -24 -24 -25 -25 -25 -25 -25 -26 -26 -26 -26 -26 -26 -26 -26 -26 -26 -26
-23 -23 -23 -23 -23 -23 -22 -22 -23 -23 -22 -22 -22 -23 -23 -23 -22 -23 -23 -24 -24 -24 -24 -24 -24 -24 -24 -25 -25 -25 -25 -26 -26 -26 -26 -26 -26 -26 -26 -26 -26 -27 -27 -26
-24 -24 -24 -24 -23 -24 -23 -23 -23 -23 -23 -23 -22 -23 -23 -23 -23 -23 -24 -24 -24 -24 -24 -24 -24 -24 -25 -25 -25 -26 -26 -26 -26 -26 -26 -26 -26 -26 -26 -27 -26 -27 -27 -27
-24 -24 -24 -25 -24 -24 -24 -23 -24 -23 -23 -23 -24 -23 -23 -23 -23 -23 -24 -24 -24 -25 -24 -24 -25 -25 -25 -25 -26 -26 -26 -26 -26 -26 -26 -26 -26 -27 -27 -27 -27 -27 -27 -27
-26 -26 -25 -24 -24 -25 -25 -25 -24 -24 -23 -24 -23 -24 -23 -23 -23 -24 -24 -25 -25 -25 -24 -25 -25 -26 -26 -26 -26 -26 -26 -26 -26 -26 -26 -26 -27 -27 -27 -27 -27 -27 -27 -27
-27 -27 -26 -25 -25 -25 -25 -24 -24 -24 -24 -24 -23 -24 -24 -24 -24 -24 -25 -25 -25 -25 -25 -25 -26 -26 -26 -26 -26 -26 -26 -26 -27 -27 -27 -27 -27 -27 -27 -27 -27 -27 -27 -27
-27 -27 -27 -28 -28 -27 -26 -25 -25 -24 -25 -24 -25 -24 -24 -24 -24 -25 -25 -25 -25 -25 -25 -26 -26 -26 -26 -26 -26 -26 -26 -27 -27 -27 -27 -27 -27 -27 -27 -27 -27 -27 -27 -27
Height
5776 5771 5770 5776 5774 5773 5772 5773 5774 5776 5778 5772 5771 5771 5772 5771 5770 5772 5777 5773 5775 5776 5778 5775 5773 5775 5779 5781 5782 5782 5780 5779 5780 5780 5780 5778 5778 5776 5776 5776 5775 5773 5771 5771
5762 5761 5763 5764 5762 5762 5761 5763 5765 5767 5767 5764 5763 5761 5762 5762 5762 5765 5767 5769 5766 5765 5766 5766 5765 5767 5770 5774 5775 5775 5773 5771 5770 5770 5769 5769 5769 5768 5767 5766 5764 5762 5761 5760
5751 5750 5749 5751 5751 5750 5751 5752 5755 5755 5755 5754 5754 5753 5753 5754 5757 5756 5756 5755 5757 5756 5757 5757 5757 5758 5760 5763 5766 5766 5765 5762 5761 5761 5760 5759 5758 5757 5755 5752 5751 5751 5750 5748
5737 5737 5740 5739 5740 5740 5741 5744 5742 5743 5741 5743 5746 5742 5745 5751 5750 5749 5742 5743 5745 5749 5750 5749 5751 5750 5750 5751 5752 5754 5752 5751 5750 5750 5748 5748 5748 5745 5742 5742 5740 5739 5737 5734
5726 5726 5728 5727 5728 5727 5730 5730 5731 5731 5731 5733 5731 5735 5738 5743 5740 5738 5737 5736 5738 5740 5740 5741 5742 5742 5743 5742 5742 5742 5743 5742 5740 5739 5737 5736 5735 5733 5732 5730 5727 5724 5722 5720
5714 5717 5715 5719 5719 5718 5718 5718 5722 5722 5724 5722 5723 5725 5727 5727 5728 5728 5729 5729 5730 5731 5732 5732 5733 5734 5734 5735 5735 5734 5732 5730 5727 5725 5723 5724 5723 5721 5718 5715 5713 5710 5708 5707
5703 5704 5707 5706 5707 5707 5707 5708 5709 5711 5711 5714 5717 5714 5715 5712 5714 5715 5717 5718 5720 5721 5721 5721 5723 5723 5724 5722 5720 5719 5718 5716 5713 5712 5710 5711 5710 5709 5707 5704 5699 5696 5695 5694
5692 5695 5695 5699 5697 5701 5700 5700 5701 5698 5701 5706 5703 5699 5702 5702 5702 5704 5706 5706 5705 5708 5710 5709 5711 5712 5710 5707 5706 5704 5702 5700 5699 5695 5696 5696 5694 5694 5692 5689 5686 5681 5680 5679
5684 5686 5686 5688 5688 5689 5690 5687 5695 5689 5690 5689 5690 5690 5692 5692 5693 5692 5694 5696 5696 5695 5696 5694 5693 5693 5691 5688 5688 5684 5683 5682 5681 5681 5681 5681 5678 5676 5676 5675 5671 5667 5666 5665
5671 5673 5676 5677 5677 5677 5678 5681 5680 5680 5680 5679 5677 5676 5681 5682 5680 5681 5684 5685 5686 5685 5679 5679 5679 5677 5678 5678 5676 5674 5673 5670 5669 5669 5668 5667 5666 5664 5664 5662 5658 5655 5653 5652
5655 5658 5662 5662 5662 5663 5666 5667 5667 5670 5669 5667 5667 5665 5670 5671 5672 5672 5673 5674 5676 5675 5672 5676 5677 5675 5672 5669 5668 5666 5663 5660 5657 5655 5654 5652 5650 5648 5647 5645 5642 5640 5638 5637
5638 5641 5645 5651 5648 5649 5650 5651 5653 5655 5658 5657 5655 5656 5659 5661 5663 5662 5659 5657 5664 5666 5664 5661 5661 5658 5657 5655 5653 5651 5647 5643 5641 5640 5638 5636 5635 5634 5632 5631 5630 5628 5627 5625
5622 5625 5631 5637 5635 5633 5636 5637 5639 5642 5645 5646 5646 5650 5649 5650 5651 5650 5648 5643 5641 5647 5648 5648 5649 5649 5645 5640 5638 5635 5632 5630 5628 5626 5623 5621 5619 5618 5618 5617 5616 5615 5614 5612
5607 5610 5616 5621 5622 5624 5624 5626 5629 5628 5629 5628 5631 5632 5635 5633 5633 5635 5635 5633 5632 5633 5629 5629 5634 5633 5631 5630 5628 5623 5621 5618 5615 5613 5611 5607 5605 5604 5604 5603 5602 5602 5601 5599
5590 5596 5600 5606 5608 5608 5609 5612 5617 5617 5618 5611 5624 5616 5627 5622 5616 5617 5622 5620 5620 5622 5617 5612 5617 5620 5618 5614 5611 5609 5607 5605 5602 5601 5598 5595 5593 5592 5591 5591 5590 5589 5588 5585
5575 5582 5586 5589 5596 5593 5591 5600 5604 5601 5605 5601 5604 5604 5613 5608 5601 5600 5607 5607 5609 5611 5609 5603 5601 5603 5602 5599 5598 5596 5591 5589 5587 5584 5582 5578 5578 5578 5576 5576 5576 5577 5576 5571
5564 5570 5572 5571 5583 5575 5570 5593 5591 5593 5589 5590 5589 5598 5599 5594 5592 5590 5593 5596 5596 5595 5595 5592 5590 5589 5588 5587 5586 5584 5580 5574 5571 5569 5566 5565 5564 5564 5562 5561 5561 5562 5561 5559
5553 5558 5557 5562 5563 5554 5569 5582 5580 5575 5577 5576 5578 5585 5584 5584 5582 5582 5583 5584 5583 5582 5582 5580 5579 5576 5575 5574 5571 5569 5566 5562 5561 5558 5556 5554 5553 5552 5551 5549 5548 5548 5548 5547
5542 5544 5544 5545 5549 5552 5557 5572 5568 5561 5566 5567 5568 5571 5573 5573 5568 5574 5574 5572 5571 5568 5567 5567 5567 5566 5564 5562 5559 5557 5554 5552 5550 5548 5546 5545 5544 5542 5540 5538 5537 5536 5535 5535
5529 5532 5534 5533 5533 5536 5549 5560 5553 5546 5543 5564 5555 5558 5559 5556 5556 5562 5560 5558 5557 5556 5554 5554 5554 5554 5551 5549 5547 5546 5545 5544 5542 5541 5539 5538 5535 5533 5530 5528 5526 5525 5524 5523
5511 5514 5515 5521 5519 5522 5540 5540 5536 5532 5541 5546 5543 5543 5544 5543 5548 5549 5546 5547 5547 5547 5546 5545 5544 5543 5540 5539 5539 5539 5538 5537 5535 5533 5531 5529 5526 5524 5521 5518 5514 5513 5512 5512
5495 5496 5499 5502 5504 5508 5520 5523 5520 5521 5520 5525 5530 5529 5530 5533 5535 5536 5536 5537 5538 5538 5538 5537 5535 5532 5531 5531 5530 5530 5529 5529 5527 5524 5522 5519 5517 5514 5511 5507 5503 5501 5502 5501
5477 5479 5482 5482 5489 5494 5502 5502 5502 5501 5508 5511 5511 5513 5517 5520 5523 5524 5524 5526 5526 5527 5528 5527 5525 5523 5522 5521 5520 5519 5518 5517 5515 5514 5511 5509 5506 5504 5500 5496 5492 5491 5491 5492
5457 5458 5456 5464 5476 5480 5482 5483 5484 5486 5492 5495 5498 5500 5505 5508 5509 5510 5511 5513 5515 5517 5518 5517 5514 5513 5511 5511 5511 5509 5507 5505 5503 5500 5498 5495 5494 5492 5489 5486 5483 5482 5482 5482
5441 5443 5447 5444 5454 5456 5461 5464 5465 5468 5474 5480 5483 5488 5492 5494 5495 5496 5499 5501 5505 5507 5509 5507 5506 5504 5502 5500 5499 5497 5494 5491 5488 5485 5482 5480 5479 5478 5478 5476 5474 5473 5473 5474
5434 5434 5425 5419 5432 5428 5439 5448 5452 5454 5460 5465 5470 5474 5478 5480 5484 5486 5487 5492 5495 5498 5498 5497 5495 5493 5492 5490 5487 5484 5481 5477 5473 5469 5466 5464 5463 5463 5463 5463 5464 5464 5465 5466
Wind_Speed
59 55 49 48 44 43 45 45 44 38 30 38 38 36 35 35 34 31 24 28 25 25 21 28 35 38 35 30 29 27 34 35 36 37 38 37 38 39 39 39 40 43 45 46
57 50 45 42 44 44 45 45 42 38 34 37 37 39 37 34 32 30 29 23 29 30 27 29 31 33 33 26 25 25 34 36 38 40 41 41 41 41 41 42 45 48 49 50
52 47 45 45 42 44 43 43 39 40 36 38 38 39 38 33 29 32 33 31 28 33 34 35 35 34 35 32 24 28 31 36 37 39 42 43 43 42 45 48 51 51 51 53
52 50 45 45 43 43 44 40 43 43 43 41 39 43 38 28 30 33 38 39 35 33 38 39 37 36 34 32 32 27 33 37 41 41 43 45 45 47 50 51 51 53 55 56
47 46 46 46 44 42 43 45 45 44 46 44 46 42 40 31 36 40 42 42 39 34 37 39 41 39 37 38 39 40 38 41 44 47 47 47 48 50 51 54 57 59 59 58
46 41 46 43 42 43 45 48 46 46 45 47 46 44 42 41 41 43 43 43 42 38 34 37 40 42 43 43 43 45 46 44 45 50 51 50 53 55 58 58 58 59 61 63
40 45 40 44 44 43 45 46 47 47 46 47 44 46 46 49 49 46 45 45 43 42 39 38 40 43 43 45 49 48 48 51 54 53 53 53 54 55 54 58 60 63 62 61
35 37 40 40 44 43 44 46 48 51 49 45 47 51 51 51 51 49 47 46 47 45 41 40 38 47 48 54 56 55 54 55 56 58 56 54 53 54 56 57 58 60 61 61
42 41 37 37 41 44 44 47 42 45 47 49 52 52 51 52 50 51 49 46 44 44 46 49 45 53 61 62 60 60 63 58 57 57 56 53 53 52 51 54 54 55 56 57
53 50 47 41 37 36 37 39 43 45 46 47 51 53 52 50 49 46 45 40 40 48 55 56 57 60 60 51 53 61 59 61 65 61 60 56 52 50 51 53 53 52 53 53
51 53 46 41 41 39 41 44 43 39 43 46 52 54 51 46 44 45 46 50 51 51 55 47 43 44 47 54 57 58 59 60 58 51 51 51 53 50 49 48 49 49 50 51
50 47 44 42 42 42 42 42 43 43 41 46 56 52 47 51 50 51 50 49 49 51 54 57 57 58 59 58 57 58 59 60 61 62 61 54 51 47 45 44 47 49 46 46
54 53 50 47 44 47 45 47 48 49 50 52 57 58 58 59 59 61 57 52 56 54 54 58 60 59 60 60 56 53 50 52 53 55 56 56 54 49 49 51 50 47 45 49
49 47 53 54 50 46 47 48 50 53 55 56 56 57 54 53 49 45 44 49 52 50 54 55 55 58 56 54 50 53 53 53 55 57 55 51 48 47 46 46 47 45 45 51
60 61 55 54 50 47 49 49 49 56 57 60 57 57 52 53 55 54 56 60 54 48 54 56 50 46 51 55 56 56 56 56 57 55 54 55 54 53 51 48 48 49 50 45
56 56 52 46 44 50 55 50 47 54 53 54 52 55 50 48 52 54 54 55 52 49 49 52 59 53 49 49 53 55 54 53 50 47 48 50 51 50 51 50 49 46 43 45
56 53 45 45 40 52 58 42 44 45 49 45 48 45 45 41 40 42 44 47 48 50 50 49 48 47 44 45 45 47 49 48 47 45 42 44 45 46 43 45 49 49 40 38
50 46 44 45 46 54 45 35 40 45 44 40 36 38 31 33 36 37 37 36 38 39 38 41 42 40 42 42 44 44 42 39 39 42 43 44 45 42 41 41 41 41 42 39
47 42 46 50 49 46 44 33 38 41 37 38 44 37 37 39 40 36 34 36 36 37 39 39 36 36 36 38 37 34 31 30 31 30 29 25 23 26 30 34 39 44 44 49
50 45 50 49 58 57 43 33 37 46 49 36 41 41 41 42 41 34 34 34 37 38 32 30 28 30 32 29 26 23 26 27 27 21 19 26 31 35 33 34 33 36 41 41
56 53 55 57 64 60 51 47 51 57 53 50 52 47 44 41 38 32 36 37 35 30 31 30 29 28 27 28 27 27 28 28 30 29 31 34 35 37 39 42 38 35 34 35
59 57 58 56 60 62 59 55 59 59 58 56 55 50 43 41 40 38 37 37 30 32 33 30 32 29 28 31 31 30 31 33 33 35 40 42 43 43 41 46 37 34 30 26
63 64 65 67 69 58 59 57 62 65 59 49 46 45 41 42 42 42 41 37 39 34 34 31 30 31 33 35 36 36 37 38 39 43 47 46 46 45 46 49 36 31 30 26
52 56 64 69 65 58 57 59 60 56 53 46 43 44 47 45 41 40 40 39 37 35 34 30 28 35 39 40 40 43 46 48 52 55 55 53 50 47 48 46 34 26 29 28
52 53 56 65 65 62 65 62 51 52 53 44 48 49 48 44 46 44 40 36 35 35 34 27 29 35 40 44 46 48 49 50 53 56 56 53 50 48 47 42 33 30 28 28
51 56 61 62 54 58 58 62 69 62 51 54 53 52 52 51 42 41 29 31 31 34 32 26 26 32 37 40 44 48 48 51 53 54 55 54 50 46 40 31 30 26 25 26
Wind_Direction
278 278 281 279 278 272 271 273 275 277 268 272 273 272 268 269 272 278 272 279 276 267 266 261 264 267 270 272 271 266 265 266 266 268 270 270 270 270 272 275 275 275 275 277
278 277 281 275 268 266 266 270 274 273 267 262 260 260 260 263 273 283 282 277 282 280 272 267 262 267 272 268 261 253 261 262 264 269 271 272 273 276 278 277 274 274 275 277
274 274 272 269 268 265 264 266 269 268 257 259 264 266 262 263 279 281 286 280 264 269 271 267 267 269 270 275 266 258 250 256 260 261 266 268 269 270 270 269 271 274 276 277
265 266 271 270 265 261 262 265 263 260 260 256 249 263 259 267 267 269 268 268 268 258 267 270 272 271 273 277 276 258 253 255 258 260 261 264 266 266 266 270 271 271 272 272
265 266 264 263 262 255 257 253 255 258 259 262 263 259 266 259 253 257 261 265 268 266 269 274 275 274 272 272 269 268 267 262 261 264 263 263 263 265 268 268 266 266 269 273
267 267 265 263 259 259 259 258 257 258 263 262 266 270 266 268 263 259 259 261 266 267 266 266 272 275 276 273 269 267 272 265 262 257 260 262 263 265 265 267 271 270 272 274
268 264 258 257 254 250 252 258 260 258 258 265 270 268 267 268 272 273 274 272 270 267 261 261 266 269 271 267 266 267 261 262 263 261 260 261 264 265 267 276 274 274 276 277
278 271 264 261 261 261 255 257 259 263 267 268 265 266 271 276 278 278 279 280 281 280 273 267 253 248 249 252 258 259 258 259 260 257 261 263 257 260 269 272 269 272 272 275
278 281 282 275 265 261 261 257 268 266 265 267 267 267 267 271 273 275 276 278 277 275 278 275 258 249 248 244 247 244 248 249 244 260 264 263 266 268 271 272 273 275 277 279
274 276 278 274 270 267 265 265 263 259 258 259 265 267 270 271 271 271 273 272 264 268 258 259 247 238 242 229 232 245 245 253 263 263 265 267 269 270 272 277 279 279 278 278
266 272 269 260 258 260 263 266 267 264 262 262 260 260 264 265 266 265 265 263 267 269 272 263 260 253 251 253 255 257 259 262 264 267 272 280 284 284 283 280 277 274 274 276
254 254 251 247 249 252 257 262 264 265 262 256 250 252 258 262 265 271 273 275 267 262 261 267 271 272 272 269 266 267 270 278 280 280 285 288 288 284 280 277 278 279 273 280
252 245 248 243 244 248 252 256 258 258 258 258 255 258 260 262 266 270 272 271 273 261 256 257 262 270 270 274 282 286 288 290 290 289 288 288 286 278 275 274 271 270 273 276
231 240 245 250 252 253 257 260 260 262 263 263 262 263 269 269 271 272 270 272 267 267 276 272 271 271 270 272 279 285 285 286 285 284 282 278 274 273 272 271 273 280 278 277
233 234 237 243 248 254 253 255 262 265 265 261 263 263 262 266 270 262 260 260 266 269 271 271 267 268 277 282 281 282 283 283 283 282 280 278 275 278 278 278 273 276 277 274
256 256 250 249 252 256 252 253 266 268 272 272 271 268 272 270 265 267 265 266 268 268 268 269 285 288 284 283 283 284 284 282 280 275 274 270 274 273 267 262 261 257 257 265
259 261 263 259 258 255 253 261 266 269 268 270 269 275 269 267 271 275 274 273 276 277 276 280 281 280 280 283 284 283 285 284 282 280 277 275 272 271 271 268 262 257 268 256
270 269 263 253 249 252 261 259 262 267 265 269 272 272 256 264 279 276 278 281 276 275 276 282 286 289 289 291 293 289 283 279 277 277 278 281 285 284 283 280 277 270 264 250
268 265 255 251 254 262 260 257 259 256 261 265 267 265 260 275 275 274 278 280 286 285 289 289 287 293 295 301 294 285 284 282 285 287 290 296 304 301 303 291 282 278 276 263
254 257 251 256 256 261 267 271 262 257 265 272 277 278 273 277 277 287 285 285 286 289 282 285 291 295 297 296 286 280 295 293 288 286 289 307 308 312 308 302 287 279 276 277
252 249 249 255 259 256 257 261 260 259 268 264 274 275 272 270 277 273 274 277 278 270 278 280 289 290 288 283 272 282 295 287 284 282 284 298 308 309 310 310 289 283 273 267
244 247 251 250 241 251 255 247 250 254 255 264 264 262 262 266 272 268 263 264 258 265 270 277 285 279 278 276 270 278 282 286 285 295 295 297 301 303 304 312 287 279 266 268
246 244 244 242 245 251 249 247 246 250 256 251 253 253 256 268 265 263 262 260 267 267 271 277 276 276 274 266 268 272 276 279 281 286 291 294 294 294 300 309 286 268 259 265
257 253 252 250 245 241 247 248 246 249 246 238 246 258 263 262 261 265 264 263 260 264 267 273 274 268 268 268 270 271 276 279 282 288 288 288 288 288 295 303 280 263 262 258
258 259 260 258 253 252 246 237 233 231 228 242 255 262 254 253 265 256 264 245 250 257 264 272 270 270 270 272 275 278 281 282 281 281 282 283 283 285 289 292 268 259 257 258
260 260 258 255 250 249 246 242 238 234 234 248 256 254 251 257 257 258 227 238 246 257 265 270 277 275 276 276 280 285 287 288 287 284 282 281 282 283 282 273 258 255 259 259